(235121) = 2003 QK21

Discovered at Palomar on 2003-08-22 by NEAT.

Orbit

Orbit type: Main Belt

Note: WebGL enabled browser required.

epoch2024-03-31.0
epoch JD2460400.5
perihelion date2021-10-12.24768
perihelion JD2459499.74769
argument of perihelion (°)340.87423
ascending node (°)11.01798
inclination (°)13.07540
eccentricity0.1316588
perihelion distance (AU)2.3766645
Tisserand w.r.t. Jupiter3.3
ΔV w.r.t. Earth (km/sec)10.5
semimajor axis (AU)2.7370169
mean anomaly (°)196.06191
mean daily motion (°/day)0.21766460
aphelion distance (AU)3.097
period (years)4.53
P-vector [x]0.98838099
P-vector [y]-0.09226311
P-vector [z]-0.12079129
Q-vector [x]0.14571747
Q-vector [y]0.80122821
Q-vector [z]0.58034453
absolute magnitude15.8
phase slope0.15
uncertainty0
referenceE2024-GI3
observations used572
oppositions17
arc length (days)8887
first opposition used1999
last opposition used2024
residual rms (arc-secs)0.65
perturbers coarse indicatorM-v
perturbers precise indicator003Ek
first observation date used1999-12-13.0
last observation date used2024-04-12.0
computer nameMPCLINUX
JD of orbit computation2456700.236240
perihelion JD uncertainty (days)1.3388E-04
argument of perihelion uncertainty (°)4.3129E-05
ascending node uncertainty (°)3.1281E-05
inclination uncertainty (°)1.0925E-05
eccentricity uncertainty 1.2228E-07
perihelion distance uncertainty (AU)3.3195E-07
Minimum Orbit Intersection Distances (in AU)
for orbit epoch: 2460400.5, reference: E2024-GI3
Mercury1.99445
Venus1.64975
Earth1.37609
Mars0.98693
Jupiter2.34549
Saturn6.23508
Uranus15.354
Neptune27.3386

Observations

560 total observations over interval: 1999 12 13.20488 – 2024 03 16.561248
These data are available for download (format description).

Date (UT) J2000 RA J2000 Dec Magn Location Ref
1999 12 13.20488 03 51 15.37 +38 10 42.2 19.7   704 – Lincoln Laboratory ETS, New Mexico MPS 167036
1999 12 13.21963 03 51 14.41 +38 10 41.1 19.8   704 – Lincoln Laboratory ETS, New Mexico MPS 167036
1999 12 13.23438 03 51 13.52 +38 10 38.2 19.9   704 – Lincoln Laboratory ETS, New Mexico MPS 167036
1999 12 13.24904 03 51 12.54 +38 10 36.0 20.1   704 – Lincoln Laboratory ETS, New Mexico MPS 167036
1999 12 13.26379 03 51 11.65 +38 10 32.4 20.1   704 – Lincoln Laboratory ETS, New Mexico MPS 167036
2003 08 22.46301 00 27 56.27 -05 28 33.7 18.5   644 – Palomar Mountain/NEAT MPS 83463
2003 08 22.47354 00 27 55.92 -05 28 32.8 18.6   644 – Palomar Mountain/NEAT MPS 83463
2003 08 22.48531 00 27 55.54 -05 28 32.0 18.8   644 – Palomar Mountain/NEAT MPS 83463
2003 08 23.34889 00 27 29.54 -05 27 54.5 18.6   704 – Lincoln Laboratory ETS, New Mexico MPS 83463
2003 08 23.36103 00 27 29.12 -05 27 54.3 19.3   704 – Lincoln Laboratory ETS, New Mexico MPS 83463
2003 08 23.37341 00 27 28.73 -05 27 54.2 19.4   704 – Lincoln Laboratory ETS, New Mexico MPS 83463
2003 08 23.38567 00 27 28.32 -05 27 52.2 19.2   704 – Lincoln Laboratory ETS, New Mexico MPS 83463
2003 08 23.39779 00 27 27.93 -05 27 52.8 19.5   704 – Lincoln Laboratory ETS, New Mexico MPS 83463
2003 08 26.35251 00 25 48.30 -05 26 04.3 18.9   704 – Lincoln Laboratory ETS, New Mexico MPS 83463
2003 08 26.36563 00 25 47.78 -05 26 04.4 19.2   704 – Lincoln Laboratory ETS, New Mexico MPS 83463
2003 08 26.37830 00 25 47.29 -05 26 03.7 19.5   704 – Lincoln Laboratory ETS, New Mexico MPS 83464
2003 08 26.39157 00 25 46.83 -05 26 03.4 18.7   704 – Lincoln Laboratory ETS, New Mexico MPS 83464
2003 08 26.40411 00 25 46.34 -05 26 03.2 18.9   704 – Lincoln Laboratory ETS, New Mexico MPS 83464
2003 09 01.30302 00 21 45.55 -05 23 56.6 18.9   704 – Lincoln Laboratory ETS, New Mexico MPS 84089
2003 09 01.31482 00 21 45.04 -05 23 55.4 19.0   704 – Lincoln Laboratory ETS, New Mexico MPS 84089
2003 09 01.32669 00 21 44.45 -05 23 55.7 19.4   704 – Lincoln Laboratory ETS, New Mexico MPS 84089
2003 09 01.33861 00 21 43.88 -05 23 55.4 19.0   704 – Lincoln Laboratory ETS, New Mexico MPS 84089
2003 09 01.35063 00 21 43.29 -05 23 55.4 19.0   704 – Lincoln Laboratory ETS, New Mexico MPS 84089
2003 09 17.25544 00 07 21.27 -05 21 21.8 18.0   644 – Palomar Mountain/NEAT MPS 86939
2003 09 17.32406 00 07 16.97 -05 21 20.7 18.1   644 – Palomar Mountain/NEAT MPS 86939
2003 09 17.38627 00 07 13.06 -05 21 19.5 18.1   644 – Palomar Mountain/NEAT MPS 86939
2003 09 18.28858 00 06 18.42 -05 21 03.5 18.7   704 – Lincoln Laboratory ETS, New Mexico MPS 84560
2003 09 18.30038 00 06 17.55 -05 21 03.6 19.1   704 – Lincoln Laboratory ETS, New Mexico MPS 84560
2003 09 18.31240 00 06 16.88 -05 21 02.4 19.0   704 – Lincoln Laboratory ETS, New Mexico MPS 84560
2003 09 18.32445 00 06 16.08 -05 21 01.9 19.1   704 – Lincoln Laboratory ETS, New Mexico MPS 84560
2003 09 18.33633 00 06 15.37 -05 21 02.7 19.1   704 – Lincoln Laboratory ETS, New Mexico MPS 84560
2003 09 20.33708 00 04 12.60 -05 20 18.1 18.4 R 699 – Lowell Observatory-LONEOS MPS 85255
2003 09 20.34202 00 04 12.30 -05 20 18.5   699 – Lowell Observatory-LONEOS MPS 85255
2003 09 20.34700 00 04 11.96 -05 20 18.4   699 – Lowell Observatory-LONEOS MPS 85255
2003 09 20.35199 00 04 11.68 -05 20 17.0   699 – Lowell Observatory-LONEOS MPS 85255
2003 09 21.48548 00 03 01.73 -05 19 46.6 20.1   608 – Haleakala-AMOS MPS 85255
2003 09 21.49605 00 03 01.05 -05 19 46.1 19.7   608 – Haleakala-AMOS MPS 85255
2003 09 21.50681 00 03 00.36 -05 19 42.7 19.3   608 – Haleakala-AMOS MPS 85255
2003 09 22.24229 00 02 15.18 -05 19 24.4 18.1 R 699 – Lowell Observatory-LONEOS MPS 85255
2003 09 22.26230 00 02 13.95 -05 19 23.1   699 – Lowell Observatory-LONEOS MPS 85255
2003 09 22.28233 00 02 12.68 -05 19 23.6   699 – Lowell Observatory-LONEOS MPS 85255
2003 09 22.30218 00 02 11.36 -05 19 22.3   699 – Lowell Observatory-LONEOS MPS 85255
2003 09 28.22888 23 56 06.97 -05 14 57.5 18.4   704 – Lincoln Laboratory ETS, New Mexico MPS 86239
2003 09 28.24210 23 56 06.16 -05 14 56.6 18.9   704 – Lincoln Laboratory ETS, New Mexico MPS 86239
2003 09 28.25517 23 56 05.30 -05 14 55.9 18.9   704 – Lincoln Laboratory ETS, New Mexico MPS 86239
2003 09 28.26766 23 56 04.53 -05 14 55.2 18.7   704 – Lincoln Laboratory ETS, New Mexico MPS 86239
2003 09 28.28033 23 56 03.78 -05 14 54.7 18.7   704 – Lincoln Laboratory ETS, New Mexico MPS 86239
2003 10 03.36648 23 51 02.85 -05 08 39.2 20.3   608 – Haleakala-AMOS MPS 86939
2003 10 03.37699 23 51 02.16 -05 08 38.3 19.6   608 – Haleakala-AMOS MPS 86939
2003 10 03.38755 23 51 01.56 -05 08 37.5 20.2   608 – Haleakala-AMOS MPS 86939
2003 10 16.11512 23 40 17.68 -04 40 46.7 18.6   644 – Palomar Mountain/NEAT MPS 87314
2003 10 16.13620 23 40 16.74 -04 40 43.1 18.5   644 – Palomar Mountain/NEAT MPS 87314
2003 10 16.15829 23 40 15.76 -04 40 38.9 18.4   644 – Palomar Mountain/NEAT MPS 87314
2003 10 16.15971 23 40 15.70 -04 40 39.1 18.7   644 – Palomar Mountain/NEAT MPS 87314
2003 10 16.18032 23 40 14.79 -04 40 35.5 18.6   644 – Palomar Mountain/NEAT MPS 87314
2003 10 16.20199 23 40 13.84 -04 40 31.8 18.8   644 – Palomar Mountain/NEAT MPS 87314
2003 10 24.10269 23 35 29.01 -04 13 31.6 20.0 V 691 – Steward Observatory, Kitt Peak-Spacewatch MPS 88051
2003 10 24.13095 23 35 28.12 -04 13 25.0 19.9 V 691 – Steward Observatory, Kitt Peak-Spacewatch MPS 88051
2003 10 24.15776 23 35 27.26 -04 13 18.6 19.9 V 691 – Steward Observatory, Kitt Peak-Spacewatch MPS 88051
2003 10 24.16992 23 35 26.87 -04 13 16.1 19.2   704 – Lincoln Laboratory ETS, New Mexico MPS 88051
2003 10 24.18522 23 35 26.40 -04 13 12.3 19.6   704 – Lincoln Laboratory ETS, New Mexico MPS 88051
2003 10 24.19810 23 35 26.00 -04 13 09.3 19.3   704 – Lincoln Laboratory ETS, New Mexico MPS 88051
2003 10 24.21220 23 35 25.53 -04 13 06.2 19.5   704 – Lincoln Laboratory ETS, New Mexico MPS 88051
2003 10 24.22425 23 35 25.19 -04 13 02.6 19.1   704 – Lincoln Laboratory ETS, New Mexico MPS 88051
2003 10 27.31371 23 34 02.84 -04 00 21.4 20.8   608 – Haleakala-AMOS MPS 88051
2003 10 27.32404 23 34 02.60 -04 00 19.1 20.3   608 – Haleakala-AMOS MPS 88051
2003 10 27.33497 23 34 02.28 -04 00 16.2 20.1   608 – Haleakala-AMOS MPS 88051
2003 11 21.13090 23 33 06.86 -01 38 56.0 19.4   704 – Lincoln Laboratory ETS, New Mexico MPS 90975
2003 11 21.15660 23 33 07.32 -01 38 45.5 20.1   704 – Lincoln Laboratory ETS, New Mexico MPS 90975
2003 11 21.16914 23 33 07.51 -01 38 39.8 19.8   704 – Lincoln Laboratory ETS, New Mexico MPS 90975
2005 01 07.35598 08 15 07.65 +39 28 04.9 19.1 R 703 – Catalina Sky Survey MPS 166047
2005 01 07.36270 08 15 07.18 +39 28 05.2 19.7 R 703 – Catalina Sky Survey MPS 166047
2005 01 07.36932 08 15 06.70 +39 28 07.2 19.9 R 703 – Catalina Sky Survey MPS 166047
2005 01 07.37576 08 15 06.30 +39 28 08.3 19.6 R 703 – Catalina Sky Survey MPS 166047
2006 03 02.37004 13 07 43.60 -05 36 15.2 20.9 V G96 – Mt. Lemmon Survey MPS 166047
2006 03 02.37730 13 07 43.35 -05 36 15.3 20.8 V G96 – Mt. Lemmon Survey MPS 166047
2006 03 02.38454 13 07 43.14 -05 36 14.9 20.9 V G96 – Mt. Lemmon Survey MPS 166047
2006 03 02.39202 13 07 42.88 -05 36 14.4 20.4 V G96 – Mt. Lemmon Survey MPS 166047
2006 03 02.41472 13 07 42.08 -05 36 14.1 21.1 V 691 – Steward Observatory, Kitt Peak-Spacewatch MPS 166047
2006 03 02.43205 13 07 41.50 -05 36 14.0 20.8 V 691 – Steward Observatory, Kitt Peak-Spacewatch MPS 166047
2006 03 02.44936 13 07 40.90 -05 36 13.8 21.1 V 691 – Steward Observatory, Kitt Peak-Spacewatch MPS 166047
2006 03 20.90190 12 54 16.29 -05 15 16.5 19.9 V A50 – Andrushivka Astronomical Observatory MPS 168807
2006 03 23.36543 12 52 06.42 -05 10 41.1 20.1 V G96 – Mt. Lemmon Survey MPS 167036
2006 03 23.37151 12 52 06.09 -05 10 40.8 20.3 V G96 – Mt. Lemmon Survey MPS 167036
2006 03 23.37777 12 52 05.77 -05 10 40.2 20.1 V G96 – Mt. Lemmon Survey MPS 167036
2006 03 23.38418 12 52 05.41 -05 10 39.2 20.2 V G96 – Mt. Lemmon Survey MPS 167036
2006 05 03.25778 12 18 01.18 -03 59 19.3 20.6 V G96 – Mt. Lemmon Survey MPS 170807
2006 05 03.26307 12 18 00.97 -03 59 18.8 20.4 V G96 – Mt. Lemmon Survey MPS 170807
2006 05 03.26829 12 18 00.82 -03 59 19.1 19.9 V G96 – Mt. Lemmon Survey MPS 170807
